Home   Weather   Kemi   Past weeks

Flag for Finland Past Weather in Kemi, Finland — Yesterday and Last 2 Weeks

Now
30 °F

Snow flurries. Overcast.


Feels Like: 22 °F
Forecast: 28 / 37 °F
Wind: 9 mph from East

Location: Kemi Airport

Current Time: Apr 24, 2017 at 10:46:10 am

Latest Report: Apr 24, 2017 at 9:50 am


Visibility: N/A

Pressure: 29.68 "Hg

Humidity: 93%

Dew Point: 28 °F

Location of KemiLocation

Past Weather in Kemi — Graph

°F

Kemi Temperature Yesterday

Maximum temperature yesterday: 39 °F (at 3:20 pm)
Minimum temperature yesterday: 21 °F (at 4:50 am)
Average temperature yesterday: 32 °F

High & Low Weather Summary for the Past Weeks

 TemperatureHumidityPressure
High41 °F (Apr 22, 4:50 pm)100% (Apr 10, 4:50 am)30.42 "Hg (Apr 10, 4:50 am)
Low7 °F (Apr 14, 4:50 am)35% (Apr 17, 7:50 pm)29.00 "Hg (Apr 11, 12:50 am)
Average28 °F78%29.73 "Hg
* Reported Apr 9 9:20 am — Apr 24 9:20 am, Kemi, Weather by CustomWeather, © 2017

Note: Actual official high and low records may vary slightly from our data, if they occured in-between our weather recording intervals... More about our weather records

Advertising

Kemi Weather History for the Previous 24 Hours

Scroll right to see more
 ConditionsComfort  
Time TempWeatherWind HumidityBarometerVisibility
9:20 am
Mon, Apr 24
30 °FSnow flurries. Overcast.12 mph93%29.68 "HgN/A
8:50 am30 °FOvercast.10 mph86%29.68 "HgN/A
8:20 am30 °FOvercast.10 mph86%29.68 "HgN/A
7:50 am30 °FOvercast.9 mph86%29.68 "HgN/A
7:20 am30 °FOvercast.9 mph86%29.68 "HgN/A
6:50 am28 °FOvercast.9 mph93%29.68 "HgN/A
6:20 am28 °FLight snow. Overcast.10 mph100%29.68 "HgN/A
5:50 am28 °FSnow flurries. Partly sunny.9 mph100%29.65 "HgN/A
5:20 am28 °FSnow flurries. Low clouds.8 mph100%29.65 "HgN/A
4:50 am28 °FLight snow. Low clouds.9 mph100%29.65 "Hg3 mi
4:20 am30 °FLight snow. Passing clouds.10 mph93%29.65 "HgN/A
3:50 am30 °FLight snow. Overcast.8 mph93%29.65 "HgN/A
3:20 am30 °FLight snow. Partly cloudy.8 mph93%29.65 "Hg4 mi
2:50 am30 °FLight snow. Mostly cloudy.8 mph93%29.65 "HgN/A
2:20 am30 °FLight snow. Passing clouds.8 mph93%29.65 "HgN/A
1:50 am30 °FPassing clouds.9 mph100%29.65 "HgN/A
1:20 am32 °FPassing clouds.8 mph93%29.65 "HgN/A
12:50 am32 °FPassing clouds.7 mph100%29.65 "HgN/A
12:20 am32 °FLight rain. Mostly cloudy.8 mph100%29.62 "HgN/A
11:50 pm
Sun, Apr 23
34 °FLight rain. Low clouds.7 mph93%29.62 "HgN/A
11:20 pm34 °FSprinkles. Low clouds.6 mph93%29.62 "Hg3 mi
10:50 pm32 °FSprinkles. Low clouds.5 mph100%29.62 "Hg2 mi
10:20 pm34 °FLight rain. Passing clouds.6 mph93%29.62 "HgN/A
9:50 pm34 °FPassing clouds.1 mph93%29.62 "HgN/A
9:20 pm34 °FPartly sunny.2 mph93%29.62 "HgN/A
8:50 pm36 °FPartly sunny.5 mph87%29.62 "HgN/A
8:20 pm36 °FBroken clouds.8 mph87%29.59 "HgN/A
7:50 pm36 °FPartly sunny.8 mph87%29.59 "HgN/A
7:20 pm36 °FSprinkles. Partly sunny.7 mph87%29.59 "HgN/A
6:50 pm37 °FOvercast.7 mph81%29.59 "HgN/A
6:20 pm37 °FPartly sunny.5 mph81%29.59 "HgN/A
5:50 pm37 °FOvercast.7 mph75%29.56 "HgN/A
5:20 pm37 °FPartly sunny.5 mph75%29.56 "HgN/A
4:50 pm37 °FPartly sunny.7 mph75%29.56 "HgN/A
4:20 pm37 °FPartly sunny.5 mph70%29.56 "HgN/A
3:20 pm39 °FPartly sunny.6 mph65%29.53 "HgN/A
2:50 pm37 °FOvercast.5 mph70%29.53 "HgN/A
2:20 pm37 °FOvercast.5 mph75%29.53 "HgN/A
1:50 pm37 °FOvercast.2 mph70%29.53 "HgN/A
1:20 pm37 °FSprinkles. Overcast.3 mph75%29.53 "HgN/A
12:50 pm37 °FMostly cloudy.2 mph75%29.53 "HgN/A
12:20 pm37 °FMostly cloudy.5 mph75%29.53 "HgN/A
11:50 am37 °FPartly sunny.9 mph70%29.50 "HgN/A
11:20 am37 °FPartly sunny.5 mph70%29.50 "HgN/A
10:50 am36 °FPartly sunny.7 mph81%29.50 "HgN/A
10:20 am36 °FPartly sunny.7 mph81%29.50 "HgN/A
Weather by CustomWeather, © 2017

See weather overviewHow to use our weather pages